Vorticity
nan nan nan nan nan nan nan nan nan nan nan nan nan nan nan nan nan nan nan nan nan nan nan nan nan nan nan nan nan nan nan nan nan nan nan nan nan nan nan nan nan nan nan nan
nan 7 11 12 8 9 7 3 6 5 10 5 5 9 12 14 11 12 17 16 11 11 10 9 9 9 8 7 8 8 8 7 4 5 7 9 11 9 10 10 9 9 8 nan
nan 10 14 11 8 8 6 8 5 5 8 5 12 12 11 8 9 13 12 14 16 14 8 9 9 8 7 8 8 7 9 7 6 5 4 6 6 8 11 10 10 10 9 nan
nan 15 10 7 7 7 9 13 6 8 6 10 6 7 9 11 11 8 12 15 12 12 10 11 8 7 6 9 7 9 10 8 9 7 6 6 3 5 8 9 10 11 11 nan
nan 16 13 10 11 5 7 12 17 12 8 9 4 9 9 11 11 13 13 8 11 13 14 11 9 8 8 8 7 9 10 8 9 7 6 7 5 5 9 11 11 10 11 nan
nan 5 10 13 15 12 10 6 7 12 13 6 15 10 6 7 10 8 8 10 9 11 12 12 14 11 12 7 9 10 10 8 9 9 8 7 7 4 3 7 9 9 11 nan
nan 12 8 8 10 17 14 6 6 7 6 6 18 8 7 8 9 7 6 6 5 9 11 15 16 12 12 10 8 9 10 9 9 8 9 7 7 7 6 6 7 7 7 nan
nan 19 18 11 12 12 15 8 2 11 10 11 7 7 6 9 9 16 12 8 10 12 11 13 17 15 13 10 8 8 8 9 10 9 9 8 6 5 10 10 8 6 6 nan
nan 10 11 10 15 12 7 15 6 6 12 10 2 5 7 5 7 9 10 12 13 15 20 22 21 17 12 11 10 9 8 9 10 8 8 8 8 8 9 10 6 6 8 nan
nan 11 9 13 12 7 9 8 10 8 9 2 3 6 10 3 7 6 12 14 14 20 23 22 17 15 14 11 11 12 10 10 10 8 7 10 9 8 9 9 8 7 10 nan
nan 11 10 10 6 8 15 8 10 6 6 14 12 9 13 9 10 11 11 14 13 16 19 17 14 14 13 12 12 11 11 9 9 9 9 8 9 9 8 9 9 9 10 nan
nan 11 8 7 10 14 11 10 14 13 9 7 9 10 8 11 13 13 11 14 16 17 17 14 14 13 12 11 9 10 9 9 9 9 9 9 9 8 9 9 9 9 10 nan
nan 13 8 14 9 4 5 6 11 16 16 10 3 8 5 8 9 7 10 13 16 16 13 13 12 12 12 13 14 14 8 8 10 8 7 9 9 8 9 9 9 8 9 nan
nan 8 9 7 3 4 4 4 9 13 15 15 7 10 2 2 8 6 9 12 15 14 14 13 10 9 15 14 15 13 18 17 11 5 8 7 8 8 8 9 9 9 9 nan
nan 12 9 8 10 6 7 11 5 6 14 15 14 13 4 9 7 10 12 11 12 15 12 10 12 12 9 11 12 12 14 12 13 17 10 7 10 8 9 9 9 9 8 nan
nan 11 7 11 15 8 10 13 7 6 13 14 18 18 8 10 9 12 11 10 12 12 11 12 10 5 7 10 5 10 9 16 15 12 12 12 10 8 9 9 9 8 8 nan
nan 10 10 11 6 13 20 10 11 7 7 12 12 15 13 8 6 4 6 7 7 10 14 12 4 5 8 3 2 0 6 13 14 14 14 11 10 9 9 10 9 9 8 nan
nan 9 9 10 10 15 12 11 8 9 11 13 15 12 10 6 5 6 3 5 5 6 8 10 11 13 10 8 11 12 7 -1 6 13 18 14 9 10 9 9 10 9 10 nan
nan 7 11 14 9 13 13 7 12 16 6 8 15 15 7 3 8 10 10 11 8 8 10 11 13 14 14 15 13 8 5 10 12 21 24 12 12 12 13 12 12 12 13 nan
nan 10 6 11 12 9 9 8 12 10 4 4 14 12 7 11 14 6 10 16 12 9 11 12 12 11 8 10 13 9 7 24 24 15 11 12 9 12 14 14 13 13 12 nan
nan 14 15 9 8 7 3 13 14 7 8 9 11 10 9 10 12 13 11 13 13 12 9 8 11 10 9 11 9 8 8 10 13 15 10 8 12 10 11 10 9 9 9 nan
nan 11 14 15 14 3 7 15 5 6 8 10 12 14 16 17 12 10 11 10 13 13 10 8 8 10 12 10 8 8 7 9 11 9 13 11 11 11 10 10 11 9 9 nan
nan 11 10 9 12 11 9 10 11 10 11 11 12 18 20 13 9 10 10 10 9 9 9 10 11 8 9 11 12 10 7 10 13 12 8 10 11 12 12 12 12 13 12 nan
nan 13 8 10 10 6 12 15 12 7 10 18 21 16 14 10 9 8 9 9 9 11 11 10 8 7 8 9 11 10 10 8 9 9 8 9 10 10 12 12 12 14 14 nan
nan 10 8 11 8 10 13 12 9 11 15 14 15 16 15 9 8 7 10 10 11 11 10 10 9 9 8 9 8 9 12 12 10 9 8 7 7 9 11 11 12 12 11 nan
nan nan nan nan nan nan nan nan nan nan nan nan nan nan nan nan nan nan nan nan nan nan nan nan nan nan nan nan nan nan nan nan nan nan nan nan nan nan nan nan nan nan nan nan
CAPE
0 0 0 0 0 0 0 0 0 0 0 0 0 0 0 0 0 0 3 731 832 843 780 693 985 1235 1421 1594 1713 2054 2074 2316 1814 1490 1454 1530 1599 1700 1897 2087 1731 1756 1699 1303
0 0 0 0 0 0 0 0 0 0 0 0 0 0 0 0 0 0 0 563 974 859 944 857 819 1008 1210 1533 2144 2086 2282 2453 2107 1838 2036 1681 1721 1773 1888 1871 1665 1816 1731 1624
0 0 0 0 0 0 0 0 0 0 0 0 0 0 0 0 0 0 0 125 644 927 1018 1069 1158 1293 1054 1522 2067 2343 2620 2533 2525 2460 1999 1689 1624 1370 1400 1611 1657 1468 1289 1282
0 0 0 0 0 0 0 0 9 7 31 0 0 0 0 0 0 0 0 8 524 844 1009 1166 1212 1198 1523 1468 1224 2008 2393 2647 2285 2669 2234 2406 1794 1709 1775 2130 1712 1459 1020 1073
0 0 0 0 0 11 44 132 96 96 45 0 0 0 0 0 0 0 0 0 0 433 904 1016 1131 1546 1556 1274 1368 1788 2452 2594 2652 2411 2564 2280 2074 2443 1735 1497 1723 1803 1657 1508
0 0 0 0 0 32 51 43 0 0 0 13 0 0 0 0 0 0 0 0 0 0 32 765 1032 1349 1639 1516 1438 1953 2379 2587 2734 2386 2365 2588 2413 2010 1725 1691 1569 1148 1013 1571
0 0 0 0 0 0 66 57 51 28 11 17 0 0 0 0 0 0 0 0 0 0 0 0 739 1488 1721 1636 1800 1955 2565 2657 2431 2291 2379 2254 2286 2382 2017 1992 1593 851 697 1345
0 0 0 0 0 8 61 55 31 31 59 25 0 0 0 0 0 0 0 0 0 0 0 0 23 1060 1417 1640 2051 2029 2468 2660 2515 2466 2478 2454 2436 2145 1969 1993 836 800 639 1087
0 0 0 0 0 0 1 0 0 0 0 0 0 0 0 0 0 0 49 1227 1134 253 0 12 379 970 1382 1819 1868 2003 2380 2747 2534 2572 2592 2551 2618 2496 2157 1848 1387 758 1262 1418
0 0 0 4 0 0 21 0 13 3 26 4 6 1 0 0 5 5 1241 2516 2157 1384 720 975 1084 1347 1499 1568 1901 2075 2319 2666 2662 2673 2655 2727 2777 2499 1826 1218 1017 1028 1951 1793
0 0 99 16 78 82 1 0 0 20 0 12 4 7 50 16 258 830 2950 2757 2355 2324 1696 1734 1790 1781 1833 1981 2154 2326 2584 2635 2756 2835 2880 2852 2575 1773 1024 745 888 1378 2161 1816
0 0 61 146 67 2 1 0 3 65 2 0 3 20 7 708 1861 2985 2928 2836 2475 2677 2470 2567 2501 2487 2421 2537 2619 2627 2810 2777 2847 2949 3026 2565 1870 1102 782 428 411 2120 2110 1656
2 10 3 54 94 86 111 105 298 681 12 57 34 15 82 1455 2468 2124 2510 2762 2474 1887 2074 2368 2577 2572 2572 2501 2513 2633 2766 2876 2943 2926 2616 1583 1203 1095 968 867 1374 2252 1924 1581
0 0 9 38 73 45 227 251 784 1105 168 53 18 88 50 1265 1744 1664 1599 2436 2977 3047 2379 2160 2072 2130 2338 2218 2145 2441 2634 2703 2696 2361 1692 1476 1441 1245 1668 2229 2629 2302 1874 1542
0 13 1 10 4 7 79 89 437 1097 1040 433 29 0 1135 1248 1020 1149 1200 1488 1822 2524 2908 2541 2442 2475 1941 1691 1730 1424 1453 1285 1447 1182 1645 2016 2077 2063 2552 2630 2634 2160 1781 1502
0 0 0 22 2 0 3 257 440 487 821 927 767 453 1063 940 838 1167 1310 1424 1525 1367 1589 1494 1464 1164 885 1274 417 25 415 1197 1710 1995 2288 2204 2249 2374 2629 2654 2453 2153 1848 1639
0 0 0 0 2 0 223 599 435 516 741 1005 1186 1332 729 720 816 871 1118 1214 1368 1351 1286 1062 819 996 842 543 29 4 413 952 1452 2011 2290 2472 2171 2149 2764 2478 2291 2257 2014 1884
0 3 25 0 14 1 803 417 296 402 487 783 919 1044 851 634 386 404 455 441 743 805 845 845 867 736 318 81 9 1 7 0 0 397 2196 2155 2117 2465 2607 2572 2514 2505 2335 2143
0 1 35 1 0 7 800 634 422 266 252 498 785 571 390 458 510 459 564 414 394 433 451 601 393 328 82 24 0 0 0 0 0 0 1488 1512 1837 2130 2325 2420 2415 2396 2196 1893
0 0 0 3 17 13 916 612 549 411 6 169 187 791 863 690 807 659 749 640 246 186 500 543 220 207 123 81 104 55 2 2 40 99 79 111 222 366 672 500 348 398 780 779
311 189 42 12 77 430 97 270 325 343 190 119 339 483 309 375 498 517 876 433 589 354 503 181 58 9 138 9 0 2 2 4 30 9 0 6 12 15 27 54 129 144 78 44
199 318 101 125 331 211 48 583 676 194 181 89 524 477 523 456 822 769 755 557 419 261 154 5 3 5 6 2 0 0 0 2 24 2 10 55 91 120 229 321 305 174 135 204
177 270 382 70 237 55 24 325 332 155 205 167 593 442 374 1128 874 599 523 522 290 44 2 0 0 0 0 0 0 0 0 0 0 0 0 0 0 3 20 38 79 64 17 6
4 73 315 124 121 243 400 235 256 39 59 121 534 628 804 766 626 425 372 360 99 45 3 0 1 1 2 0 0 0 0 0 0 0 0 0 0 0 3 4 9 12 76 57
36 145 103 88 8 124 141 112 169 9 2 304 552 711 586 321 51 22 17 3 6 9 1 1 3 3 6 3 4 1 0 0 0 0 0 0 0 1 2 6 10 5 5 3
224 167 72 50 17 347 135 120 112 26 5 8 142 1 0 0 0 71 38 6 4 0 1 1 0 1 1 0 0 1 3 9 2 0 0 0 0 1 1 8 17 0 0 0